[[{"header":{"parameterUnit":"m.s-1","parameterCategory":1,"la1":30.2991,"la2":30.254,"lo1":-89.0895,"lo2":-89.0444,"dy":0.0017,"dx":0.0017,"nx":28,"ny":28,"refTime":"2024-07-10T03:00:00:Z","depth":0,"parameterNumber":2,"parameterNumberName":"U-component_of_WINDS"},"data":[0,0,0,0,0,0,0,0,0,0,0,0,0,0,0,0,0,0,0,0,0,0,0,0,0,0,0,0,0,0,0,0,0,0,0,0,0,0,0,0,0,0,0,0,0,0,0,0,0,0,0,0,0,0,0,0,0,0,1.4511,1.451,0,1.4477,1.4477,1.4476,1.4419,1.4418,1.4417,1.4416,1.4382,1.4382,1.4382,0,0,0,0,0,0,0,0,0,0,0,0,0,1.4525,1.4525,1.4511,1.451,1.451,1.4477,1.4477,1.4476,1.4419,1.4418,1.4417,1.4415,1.4382,1.4382,1.4382,0,0,0,0,0,0,0,0,0,0,0,0,0,1.4508,1.4525,1.4511,1.4477,1.4474,1.4477,1.4477,1.4476,1.442,1.4418,1.4416,1.4415,1.4382,1.4382,1.4382,1.4415,0,0,1.4382,1.4382,0,0,0,0,0,0,0,0,1.4509,1.4508,1.4483,1.448,1.4476,1.4451,1.4469,1.4456,1.442,1.444,1.4416,1.4414,1.4406,1.4404,1.4401,1.4413,1.4412,1.4382,1.4382,1.4382,1.4382,0,0,0,0,0,0,0,1.4511,1.4509,1.4497,1.4482,1.4478,1.4464,1.446,1.4467,1.4433,1.4438,1.4434,1.4431,1.4404,1.4401,1.44,1.4411,1.4382,1.4382,1.4382,1.4383,1.4449,1.4451,0,0,0,0,0,0,1.4517,1.451,1.4498,1.4496,1.4489,1.4465,1.4461,1.446,1.4432,1.4426,1.4432,1.4428,1.4402,1.44,1.4399,1.4435,1.4382,1.4383,1.4383,1.4448,1.445,1.4451,0,0,0,0,0,0,1.4517,1.4516,1.45,1.4502,1.4499,1.4467,1.4467,1.4461,1.4458,1.4428,1.4421,1.4436,1.44,1.4398,1.4411,1.4433,1.4383,1.4383,1.4446,1.4448,1.4451,1.4509,0,0,0,0,0,0,1.4518,1.4517,1.4529,1.4503,1.4499,1.4513,1.4468,1.4461,1.4458,1.4453,1.4429,1.4424,1.4399,1.4411,1.4412,1.4432,1.4383,1.4443,1.4447,1.445,1.4505,1.4513,1.452,0,0,0,0,0,1.4519,1.4546,1.453,1.4528,1.4513,1.4514,1.4512,1.4483,1.446,1.4472,1.4453,1.4425,1.4431,1.4413,1.4413,1.4434,1.4442,1.4446,1.4449,1.4502,1.4512,1.452,0,0,0,0,0,0,1.4575,1.4542,1.4523,1.4544,1.4532,1.4505,1.4519,1.4495,1.4489,1.4484,1.4448,1.4444,1.4461,1.4449,1.443,1.4465,1.4432,1.4436,1.4472,1.4481,1.4489,1.4491,1.4383,0,0,0,0,0,1.459,1.4594,1.4565,1.4586,1.4581,1.4551,1.455,1.4529,1.4516,1.4511,1.4492,1.4481,1.448,1.448,1.4478,1.4504,1.4497,1.4518,1.4526,1.4532,1.4536,1.4548,1.4557,1.4464,1.4464,1.4464,0,0,1.4621,1.4604,1.4608,1.4597,1.4585,1.459,1.4547,1.4554,1.4557,1.4511,1.4522,1.4509,1.4494,1.4513,1.4521,1.4503,1.456,1.4537,1.4543,1.4542,1.4553,1.4562,1.457,1.4467,1.4466,1.4466,0,0,1.4679,1.4666,1.4682,1.4672,1.4655,1.4636,1.464,1.4616,1.4605,1.4616,1.4582,1.4585,1.4585,1.4575,1.4571,1.4627,1.46,1.4627,1.4667,1.4679,1.4687,1.4693,1.4712,1.472,1.4631,1.4631,1.4631,0,1.4719,1.4724,1.4693,1.4702,1.4698,1.4658,1.4674,1.4665,1.4649,1.4648,1.4629,1.4628,1.4615,1.4631,1.4645,1.4643,1.4646,1.4629,1.4688,1.4694,1.47,1.4718,1.4725,1.4634,1.4634,1.4634,1.4633,0,1.4774,1.4779,1.4794,1.4779,1.4777,1.4789,1.476,1.4762,1.4742,1.4724,1.4735,1.4719,1.4712,1.4715,1.4694,1.4729,1.4719,1.4695,1.4661,1.4712,1.4729,1.4735,1.4639,1.4638,1.4637,1.4636,0,0,1.4866,1.4835,1.4841,1.4834,1.4813,1.4816,1.4827,1.4821,1.4823,1.4814,1.4822,1.4823,1.4801,1.4795,1.4774,1.4785,1.483,1.476,1.4759,1.4773,1.4867,1.4884,1.4893,1.4814,1.4815,1.4816,1.4868,0,1.4919,1.4935,1.4908,1.4931,1.4934,1.4897,1.4906,1.4895,1.4879,1.488,1.4863,1.4864,1.4835,1.4832,1.4841,1.4823,1.4849,1.4819,1.482,1.4821,1.4824,1.4902,1.492,1.497,1.4874,1.4875,1.4876,0,1.4982,1.4976,1.4999,1.4978,1.4978,1.4987,1.498,1.4981,1.4968,1.4956,1.4951,1.4925,1.4935,1.4903,1.4916,1.4896,1.4895,1.4887,1.4888,1.4886,1.4851,1.4901,1.4985,1.4992,1.4886,1.4885,1.4885,0,1.5046,1.5044,1.5057,1.5052,1.5028,1.5035,1.5025,1.501,1.5009,1.5003,1.5001,1.4996,1.4993,1.499,1.4965,1.4944,1.498,1.4946,1.497,1.4971,1.4978,1.4978,1.5062,1.498,1.4979,1.4979,1.4979,0,1.5107,1.5122,1.5085,1.5093,1.511,1.5079,1.5096,1.5083,1.507,1.5075,1.5043,1.5049,1.5015,1.5017,1.4997,1.501,1.5009,1.4999,1.4994,1.5002,1.5003,1.5,1.4995,1.4981,1.4981,1.498,1.498,0,1.518,1.5156,1.5168,1.5144,1.5139,1.5152,1.5131,1.5138,1.5121,1.5128,1.5128,1.51,1.5101,1.5076,1.5071,1.5058,1.5079,1.5068,1.5084,1.508,1.5104,1.5102,1.5189,1.5199,1.5111,1.5112,1.5113,0,1.522,1.5231,1.5209,1.521,1.5202,1.5204,1.5202,1.5173,1.5172,1.5159,1.5167,1.5166,1.5162,1.5165,1.5145,1.5142,1.5129,1.516,1.5129,1.5136,1.5129,1.5128,1.5129,1.5166,1.5168,1.5168,1.5169,0,1.5293,1.5281,1.528,1.5275,1.5274,1.5268,1.526,1.5263,1.5231,1.5233,1.5233,1.5231,1.5227,1.5225,1.5218,1.5208,1.5184,1.518,1.5185,1.5192,1.5201,1.5196,1.5101,1.5177,1.5177,1.5176,1.5176,1.5175,1.535,1.5359,1.5344,1.5344,1.5335,1.5329,1.5334,1.5318,1.5318,1.5312,1.5295,1.5299,1.5286,1.5274,1.5266,1.5269,1.5253,1.5261,1.5262,1.5265,1.5269,1.5202,1.5267,1.5267,1.5267,1.5267,1.5266,0,1.5422,1.5411,1.5411,1.5402,1.5402,1.5379,1.537,1.5371,1.5375,1.5365,1.5363,1.5363,1.5362,1.5343,1.5339,1.5345,1.5333,1.5345,1.5343,1.5341,1.5283,1.5279,1.5354,1.5354,1.5354,1.5354,1.5354,1.5354,1.5459,1.5471,1.5457,1.5465,1.5454,1.5457,1.5454,1.5448,1.544,1.5443,1.5442,1.5429,1.5415,1.5411,1.5409,1.5403,1.5403,1.5418,1.5408,1.5354,1.5345,1.5337,1.5333,1.5418,1.5418,1.5466,1.5466,1.5467]},{"header":{"parameterUnit":"m.s-1","parameterCategory":1,"la1":30.2991,"la2":30.254,"lo1":-89.0895,"lo2":-89.0444,"dy":0.0017,"dx":0.0017,"nx":28,"ny":28,"refTime":"2024-07-10T03:00:00:Z","depth":0,"parameterNumber":3,"parameterNumberName":"V-component_of_WINDS"},"data":[0,0,0,0,0,0,0,0,0,0,0,0,0,0,0,0,0,0,0,0,0,0,0,0,0,0,0,0,0,0,0,0,0,0,0,0,0,0,0,0,0,0,0,0,0,0,0,0,0,0,0,0,0,0,0,0,0,0,-1.1778,-1.1779,0,-1.1857,-1.1858,-1.1859,-1.187,-1.187,-1.1869,-1.1868,-1.1949,-1.1952,-1.1955,0,0,0,0,0,0,0,0,0,0,0,0,0,-1.1639,-1.1641,-1.1778,-1.1779,-1.178,-1.1857,-1.1858,-1.1859,-1.1871,-1.187,-1.1869,-1.1868,-1.1948,-1.1952,-1.1955,0,0,0,0,0,0,0,0,0,0,0,0,0,-1.1707,-1.1642,-1.1778,-1.1795,-1.1797,-1.1857,-1.1858,-1.1859,-1.1871,-1.187,-1.1869,-1.1868,-1.1947,-1.1951,-1.1955,-1.2003,0,0,-1.1968,-1.197,0,0,0,0,0,0,0,0,-1.1703,-1.1712,-1.1792,-1.1794,-1.1797,-1.1853,-1.1839,-1.1908,-1.1871,-1.1843,-1.1868,-1.1867,-1.1918,-1.1925,-1.1942,-1.2007,-1.2011,-1.1969,-1.1971,-1.1973,-1.1974,0,0,0,0,0,0,0,-1.1698,-1.1708,-1.1809,-1.1793,-1.1796,-1.1799,-1.1808,-1.1852,-1.1886,-1.1845,-1.1846,-1.1855,-1.1919,-1.1938,-1.1944,-1.2012,-1.1969,-1.1972,-1.1975,-1.1977,-1.2123,-1.2124,0,0,0,0,0,0,-1.169,-1.1704,-1.1807,-1.1812,-1.1746,-1.1803,-1.1812,-1.1836,-1.1885,-1.1892,-1.1856,-1.1856,-1.1931,-1.1939,-1.1947,-1.2008,-1.1973,-1.1977,-1.198,-1.2121,-1.2123,-1.2124,0,0,0,0,0,0,-1.1687,-1.1699,-1.1804,-1.1758,-1.1772,-1.1806,-1.1833,-1.1838,-1.1856,-1.1893,-1.19,-1.1869,-1.193,-1.1941,-1.199,-1.201,-1.1979,-1.1983,-1.212,-1.2122,-1.2124,-1.2129,0,0,0,0,0,0,-1.1683,-1.1698,-1.1716,-1.1759,-1.1774,-1.1845,-1.1834,-1.184,-1.1864,-1.1864,-1.1907,-1.1913,-1.193,-1.1983,-1.1994,-1.2016,-1.1986,-1.2118,-1.2121,-1.2123,-1.2127,-1.2131,-1.2134,0,0,0,0,0,-1.1678,-1.1714,-1.1717,-1.1729,-1.1798,-1.1846,-1.1855,-1.1874,-1.1865,-1.1884,-1.1908,-1.1912,-1.2006,-1.1988,-1.2,-1.2024,-1.2117,-1.212,-1.2123,-1.2125,-1.213,-1.2134,0,0,0,0,0,0,-1.1672,-1.172,-1.1724,-1.1774,-1.1806,-1.1848,-1.1872,-1.1878,-1.1913,-1.1912,-1.1934,-1.1944,-1.1992,-1.2013,-1.1992,-1.2074,-1.2061,-1.2066,-1.2059,-1.2063,-1.2067,-1.2061,-1.199,0,0,0,0,0,-1.1677,-1.1712,-1.1752,-1.1793,-1.1809,-1.1838,-1.186,-1.1872,-1.1906,-1.1919,-1.1947,-1.198,-1.2017,-1.2041,-1.2077,-1.213,-1.214,-1.2152,-1.2155,-1.2158,-1.2163,-1.2194,-1.22,-1.2134,-1.2134,-1.2134,0,0,-1.1687,-1.1717,-1.1738,-1.1792,-1.1819,-1.1855,-1.1849,-1.1887,-1.1915,-1.1925,-1.1973,-1.1995,-1.2033,-1.2085,-1.2109,-1.2103,-1.2184,-1.2162,-1.2164,-1.2167,-1.2198,-1.2204,-1.221,-1.2136,-1.2136,-1.2136,0,0,-1.1724,-1.175,-1.1788,-1.1815,-1.1855,-1.1874,-1.1883,-1.1925,-1.1939,-1.1988,-1.1997,-1.203,-1.2094,-1.2121,-1.2144,-1.2193,-1.2198,-1.2204,-1.2223,-1.2253,-1.2258,-1.2263,-1.2282,-1.2289,-1.2209,-1.2209,-1.2209,0,-1.1732,-1.1787,-1.1807,-1.1846,-1.187,-1.1881,-1.192,-1.1945,-1.1995,-1.2012,-1.2005,-1.2086,-1.2112,-1.2171,-1.2184,-1.2201,-1.2213,-1.22,-1.2256,-1.2261,-1.2266,-1.2284,-1.2291,-1.2209,-1.2209,-1.2209,-1.2209,0,-1.1795,-1.1834,-1.186,-1.1908,-1.1935,-1.1974,-1.2,-1.2025,-1.2036,-1.2056,-1.2107,-1.2139,-1.2183,-1.2197,-1.2207,-1.2259,-1.2254,-1.2251,-1.2239,-1.2272,-1.229,-1.2298,-1.221,-1.221,-1.221,-1.221,0,0,-1.1831,-1.1891,-1.19,-1.1923,-1.1969,-1.1999,-1.2039,-1.2082,-1.2104,-1.2138,-1.2173,-1.2227,-1.2226,-1.2251,-1.2264,-1.229,-1.233,-1.2285,-1.2286,-1.2293,-1.239,-1.2393,-1.2401,-1.2333,-1.2334,-1.2335,-1.2388,0,-1.1875,-1.1946,-1.1966,-1.2027,-1.2063,-1.2075,-1.211,-1.2142,-1.2162,-1.2197,-1.2219,-1.2258,-1.2252,-1.2268,-1.2294,-1.2319,-1.235,-1.2316,-1.2367,-1.2368,-1.2358,-1.241,-1.2413,-1.246,-1.2395,-1.2396,-1.2397,0,-1.1935,-1.1972,-1.2036,-1.2079,-1.2095,-1.2126,-1.2168,-1.2201,-1.2238,-1.2251,-1.228,-1.2291,-1.2334,-1.2319,-1.238,-1.2356,-1.2378,-1.2394,-1.2396,-1.2403,-1.2385,-1.2419,-1.2476,-1.2484,-1.2408,-1.2407,-1.2406,0,-1.1957,-1.2022,-1.207,-1.2089,-1.2139,-1.2161,-1.2183,-1.2219,-1.2244,-1.2281,-1.2298,-1.2339,-1.2362,-1.2394,-1.2417,-1.2403,-1.2476,-1.2462,-1.2489,-1.2489,-1.2505,-1.2504,-1.2567,-1.2517,-1.2516,-1.2516,-1.2516,0,-1.2005,-1.2044,-1.208,-1.211,-1.2155,-1.2177,-1.2221,-1.2244,-1.2276,-1.2311,-1.2323,-1.2355,-1.2382,-1.2418,-1.2436,-1.2485,-1.2494,-1.2507,-1.2512,-1.2507,-1.2505,-1.2522,-1.252,-1.2518,-1.2518,-1.2517,-1.2517,0,-1.2037,-1.2062,-1.2115,-1.2159,-1.2171,-1.2202,-1.224,-1.227,-1.2291,-1.2334,-1.2346,-1.2379,-1.2423,-1.2448,-1.2503,-1.2515,-1.2569,-1.2571,-1.2557,-1.2559,-1.2585,-1.2583,-1.2663,-1.2675,-1.2615,-1.2616,-1.2616,0,-1.2066,-1.2097,-1.2144,-1.2169,-1.2191,-1.223,-1.2256,-1.2279,-1.2306,-1.2352,-1.2377,-1.2421,-1.2458,-1.2527,-1.2556,-1.2599,-1.2603,-1.2628,-1.2609,-1.2604,-1.2605,-1.2604,-1.2608,-1.2631,-1.2632,-1.2632,-1.2633,0,-1.2116,-1.2128,-1.2165,-1.2207,-1.2239,-1.2273,-1.2307,-1.2326,-1.2356,-1.2386,-1.2431,-1.2459,-1.2516,-1.256,-1.2605,-1.2629,-1.2636,-1.2638,-1.2647,-1.2643,-1.2634,-1.2641,-1.2567,-1.2637,-1.2636,-1.2636,-1.2636,-1.2635,-1.2149,-1.2178,-1.2216,-1.2258,-1.2286,-1.2318,-1.2349,-1.2374,-1.2412,-1.246,-1.2472,-1.2519,-1.2557,-1.2619,-1.2643,-1.2681,-1.2677,-1.2689,-1.2693,-1.2696,-1.2698,-1.2627,-1.2689,-1.2689,-1.2689,-1.2689,-1.2689,0,-1.2201,-1.2226,-1.2265,-1.2313,-1.2346,-1.235,-1.2389,-1.2416,-1.2458,-1.2493,-1.2529,-1.2582,-1.2625,-1.2659,-1.2704,-1.2728,-1.2733,-1.2739,-1.2738,-1.2744,-1.2698,-1.2687,-1.2735,-1.2735,-1.2735,-1.2735,-1.2735,-1.2735,-1.2232,-1.2281,-1.2298,-1.2362,-1.2387,-1.2434,-1.2456,-1.2486,-1.2515,-1.2573,-1.2609,-1.2631,-1.2665,-1.2713,-1.2754,-1.2762,-1.2779,-1.2785,-1.2795,-1.2752,-1.2747,-1.2742,-1.2732,-1.2788,-1.2788,-1.2838,-1.2838,-1.2839]}]]